User: anonymous
Location: Bishop's University Astronomical Observatory
(45.3661°N, 71.8475°W)
Time: 08:11:00
(UTC-04:00)
Language:

Meteor 2-5 Rocket - Orbit

View from above orbital plane
View from above orbital plane
View from above satellite
View from above satellite

Ground track
Ground track

The orbit data is extracted from the following two-line orbital elements,

1 11608U 79095B   14241.21368037  .00000000  00000-0 -74294-5 0  6234
2 11608 081.2138 123.6414 0054847 155.3005 353.9442 14.06015051786328
Epoch (UTC): 29 August 2014 05:07:41
Eccentricity: 0.0054847
inclination: 81.2138°
perigee height: 833 km
apogee height: 913 km
right ascension of ascending node: 123.6414°
argument of perigee: 155.3005°
revolutions per day: 14.06015051
mean anomaly at epoch: 353.9442°
orbit number at epoch: 78632

The dashed part of the orbit path shows where the satellite is in the earth's shadow,  

DLR